SB KEPS @ AMSAT $ORB09260.N 2Line Orbital Elements 09260.AMSAT
HR AMSAT ORBITAL ELEMENTS FOR AMATEUR SATELLITES IN NASA FORMAT FROM WA5QGD FORT WORTH,TX September 17, 2009 Send Subscribe/unsubscribe to KEPS at http://www.amsat.org/mailman/listinfo/keps BID: ORB09260.N
DECODE 2-LINE ELSETS WITH THE FOLLOWING KEY: 1 AAAAAU 00 0 0 BBBBB.BBBBBBBB .CCCCCCCC 00000-0 00000-0 0 DDDZ 2 AAAAA EEE.EEEE FFF.FFFF GGGGGGG HHH.HHHH III.IIII JJ.JJJJJJJJKKKKKZ KEY: A-CATALOGNUM B-EPOCHTIME C-DECAY D-ELSETNUM E-INCLINATION F-RAAN G-ECCENTRICITY H-ARGPERIGEE I-MNANOM J-MNMOTION K-ORBITNUM Z-CHECKSUM
TO ALL RADIO AMATEURS BT
AO-07 1 07530U 74089B 09259.62670615 -.00000027 00000-0 10000-3 0 05834 2 07530 101.4227 280.9347 0012120 089.5816 270.6639 12.53576516594170 FO-29 1 24278U 96046B 09259.77835131 -.00000002 00000-0 30587-4 0 01530 2 24278 098.5387 121.4465 0351309 112.9478 250.9134 13.52944998646139 SO-33 1 25509U 98061B 09260.24971166 .00000224 00000-0 34537-4 0 5448 2 25509 031.4321 251.9117 0354095 063.4049 300.2404 14.28266268569003 RS-22 1 27939U 03042A 09259.68851878 .00000105 00000-0 29170-4 0 08937 2 27939 097.9287 131.1588 0012972 200.3116 159.7579 14.63340633318957 VO-52 1 28650U 05017B 09260.30319209 -.00000147 00000-0 -12084-4 0 3210 2 28650 097.7349 318.7955 0028342 089.0168 271.4268 14.81618052236288 AO-16 1 20439U 90005D 09260.79633904 .00000012 00000-0 20019-4 0 7043 2 20439 098.2905 225.0359 0009967 255.9114 104.0962 14.31833241 26401 LO-19 1 20442U 90005G 09260.48882909 .00000002 00000-0 16020-4 0 6195 2 20442 098.2530 231.6465 0010974 250.5082 109.4933 14.32067738 26526 AO-27 1 22825U 93061C 09260.27335716 -.00000027 00000-0 60521-5 0 3419 2 22825 098.4461 210.8360 0008249 000.0610 000.0584 14.29273039833060 IO-26 1 22826U 93061D 09260.38731082 .00000005 00000-0 18638-4 0 714 2 22826 098.4384 211.6560 0009036 354.7427 005.3663 14.29526004833188 GO-32 1 25397U 98043D 09259.82226978 -.00000182 00000-0 -62450-4 0 09937 2 25397 098.3248 277.2455 0001448 025.3266 334.7975 14.23162460581163 NO-44 1 26931U 01043C 09259.86506764 .00000064 00000-0 57444-4 0 02672 2 26931 067.0517 188.1527 0006661 274.5655 085.4657 14.29567289415686 SO-50 1 27607U 02058C 09260.75466124 -.00000031 00000-0 17034-4 0 9869 2 27607 064.5581 103.9513 0056545 182.6486 177.4328 14.71458233362297 CO-55 1 27844U 03031E 09260.60767456 .00000036 00000-0 37139-4 0 6690 2 27844 098.7142 268.4762 0009044 236.1882 123.8441 14.20655870322389 CO-57 1 27848U 03031J 09260.80947590 .00000011 00000-0 25374-4 0 6191 2 27848 098.7177 267.7385 0008969 241.1494 118.8791 14.20455525322370 AO-51 1 28375U 04025K 09260.06012408 .00000001 00000-0 13003-4 0 4878 2 28375 098.0547 264.3202 0082903 206.0341 153.6669 14.40652079274183 CO-56 1 28941U 06005C 09260.75404732 .00157467 12605-4 28274-3 0 4500 2 28941 098.1266 093.5596 0052767 138.7772 221.7472 15.98979695201968 GENESAT1 1 29655U 06058C 09259.59750941 .00013207 00000-0 12080-3 0 08199 2 29655 040.0242 329.7914 0002151 083.8321 276.2742 15.67438654156810 CP3 1 31129U 07012N 09260.71056793 .00000038 00000-0 19627-4 0 2006 2 31129 097.9795 309.3144 0102724 359.2113 000.8896 14.52161620128312 CO-65 1 32785U 08021C 09260.72252769 -.00000093 00000-0 -50507-5 0 4736 2 32785 097.9364 323.8817 0016137 090.1838 270.1222 14.81516508 75146 KKS-1 1 33493U 09002B 09260.81384222 .00000225 00000-0 36322-4 0 7649 2 33493 098.0635 013.4647 0019000 304.4734 055.4695 14.80728283 35178 SOHLA-1 1 33496U 09002E 09260.79020507 .00000028 00000-0 12958-4 0 7293 2 33496 098.0437 008.6832 0006756 000.3019 359.8188 14.69446383 34874 NOAA-10 1 16969U 86073A 09259.63458652 -.00000113 00000-0 -28116-4 0 07648 2 16969 098.6879 285.7660 0011569 292.1902 067.8053 14.27393506196556 NOAA-11 1 19531U 88089A 09259.78449313 .00000085 00000-0 66401-4 0 07820 2 19531 098.7821 348.3147 0011106 204.8251 155.2372 14.14903584082472 NOAA-12 1 21263U 91032A 09259.98104141 .00000017 00000-0 26224-4 0 02948 2 21263 098.7750 268.0943 0011407 238.6592 121.3473 14.25593049953473 MET-3/5 1 21655U 91056A 09260.90745598 .00000051 00000-0 10000-3 0 6553 2 21655 082.5581 141.0151 0012921 314.0697 045.9359 13.17021356869836 MET-2/21 1 22782U 93055A 09260.66880123 .00000008 00000-0 -64120-5 0 5672 2 22782 082.5457 108.6595 0023866 087.3329 273.0565 13.83638072810395 OKEAN-4 1 23317U 94066A 09259.74523149 .00000199 00000-0 21543-4 0 00204 2 23317 082.5368 249.0375 0023949 064.5498 295.8213 14.82719968805933 NOAA-14 1 23455U 94089A 09259.82096992 -.00000071 00000-0 -13823-4 0 07606 2 23455 098.9027 337.1519 0008504 292.2126 067.8118 14.13769179758870 NOAA-15 1 25338U 98030A 09259.90902129 .00000119 00000-0 69660-4 0 00845 2 25338 098.5931 247.1440 0011256 146.2229 213.9660 14.24784579589832 RESURS 1 25394U 98043A 09259.98431836 -.00000069 00000-0 -11983-4 0 03339 2 25394 098.3344 287.6351 0001352 343.9349 016.1788 14.24188465581462 FENGYUN1 1 25730U 99025A 09260.88041708 .00000559 00000-0 35308-3 0 8535 2 25730 098.7606 228.2872 0022076 316.9857 042.9587 14.07983746533366 OKEAN-0 1 25860U 99039A 09260.51968836 .00000013 00000-0 92855-5 0 7866 2 25860 097.7975 238.0814 0000587 090.8756 269.2514 14.73587504546747 NOAA-16 1 26536U 00055A 09259.88094058 -.00000169 00000-0 -66187-4 0 05636 2 26536 099.1800 265.7820 0010921 029.1336 331.0432 14.12530688463241 NOAA-17 1 27453U 02032A 09259.83132653 .00000117 00000-0 69260-4 0 05604 2 27453 098.4747 315.7021 0011323 211.3995 148.6482 14.24091182375797 NOAA-18 1 28654U 05018A 09259.85915084 -.00000183 00000-0 -76842-4 0 00473 2 28654 098.9123 202.4128 0015268 102.7377 257.5512 14.11284500222882 NOAA-19 1 33591U 09005A 09259.85883179 -.00000134 00000-0 -50332-4 0 02528 2 33591 098.7518 203.2618 0014195 348.2897 011.7959 14.10984596031366 HUBBLE 1 20580U 90037B 09259.08437116 .00000307 00000-0 10743-4 0 04476 2 20580 028.4702 229.0485 0003477 167.4835 192.5878 15.00829594863522 ISS 1 25544U 98067A 09259.87340920 .00007169 00000-0 53204-4 0 06222 2 25544 051.6371 196.1499 0009356 097.8592 019.9809 15.74137060620397 CO-58 1 28895U 05043F 09260.25574701 .00000122 00000-0 34941-4 0 3974 2 28895 098.0437 148.2275 0018879 061.5325 298.7754 14.59795182207168 FALCON 1 30776U 07006E 09260.41619302 .00000295 00000-0 24358-4 0 6594 2 30776 035.4344 259.8201 0001742 344.2642 015.8020 15.03302509138987 MAST 1 31126U 07012K 09260.69301320 -.00000144 00000-0 -21925-4 0 6872 2 31126 097.9791 311.2163 0094662 353.5211 006.4770 14.53515090128470 CAPE1 1 31130U 07012P 09260.68527319 -.00000038 00000-0 19778-5 0 6970 2 31130 097.9807 309.1883 0102909 359.6081 000.5016 14.52085486128113 COMPASS 1 32787U 08021E 09260.28605451 .00000322 00000-0 47574-4 0 4652 2 32787 097.9341 323.2908 0017090 093.3623 266.9535 14.81655008 75086 AAUSAT2 1 32788U 08021F 09259.63848704 .00000110 00000-0 20721-4 0 04672 2 32788 097.9339 322.7231 0016900 096.2258 264.0877 14.81779288074996 DO-64 1 32789U 08021G 09260.74066799 .00000280 00000-0 42191-4 0 4766 2 32789 097.9373 324.0385 0016876 090.7834 269.5312 14.81790128 75150 CO-66 1 32791U 08021J 09260.74494242 .00000181 00000-0 29820-4 0 4581 2 32791 097.9362 323.7787 0017407 089.4018 270.9187 14.81477166 75119 RS-30 1 32953U 08025A 09260.35033873 .00000010 00000-0 00000 0 0 4070 2 32953 082.5027 199.3022 0019345 342.4073 017.6341 12.43003101 59842 TACSAT-3 1 35001U 09028A 09260.80993862 .00002358 00000-0 64811-4 0 993 2 35001 040.4548 046.6380 0022739 130.4330 229.8472 15.39160440 18624 PHARMSAT 1 35002U 09028B 09260.74985356 .00002169 00000-0 58577-4 0 965 2 35002 040.4682 046.2920 0025370 134.2619 226.0282 15.39915071 18611 HAWKSAT1 1 35003U 09028C 09259.80034946 .00004165 00000-0 10446-3 0 1007 2 35003 040.4622 051.3227 0025544 132.6730 227.6251 15.40628816 18480 CP6 1 35004U 09028D 09259.79931168 .00005154 00000-0 12763-3 0 943 2 35004 040.4595 051.3119 0024992 129.6314 230.6707 15.40689374 18475 AEROCUB3 1 35005U 09028E 09260.78616511 .00004880 00000-0 12193-3 0 950 2 35005 040.4740 045.7330 0025286 135.8423 224.4416 15.40493796 18623 DRAGNSAT 1 35690U 09038B 09260.88061712 .00027068 00000-0 13018-3 0 476 2 35690 051.6396 188.0706 0002019 253.1658 106.9109 15.82451940 7818 POLLUX 1 35693U 09038E 09260.77133799 .00024591 00000-0 12217-3 0 492 2 35693 051.6392 188.8470 0003399 173.5523 186.5545 15.81808893 7765 CASTOR 1 35694U 09038F 09260.78714765 .00012853 00000-0 68432-4 0 479 2 35694 051.6409 188.9607 0003667 183.9743 176.1227 15.80877262 7762 /EX
participants (1)
-
Ray Hoad